Fort Morgan, CO

2:06 AM MST on December 15, 2017 (GMT -0700)
Fort Morgan

Weather History for KFMM - September, 2012

Change the Weather History Date:

Sunday, September 30, 2012

  Actual Average (KAKO) Record (KAKO)
Temperature  
Mean Temperature 66 °F -  
Max Temperature 80 °F 73 °F 90 °F (1942)
Min Temperature 52 °F 43 °F 17 °F (1985)
Cooling Degree Days 1    
Growing Degree Days 16 (Base 50)    
Moisture  
Dew Point 38 °F    
Average Humidity 42    
Maximum Humidity 80    
Minimum Humidity 18    
Precipitation  
Precipitation 0.00 in - - ()
Sea Level Pressure  
Sea Level Pressure 30.12 in    
Wind  
Wind Speed 11 mph ()    
Max Wind Speed 26 mph    
Max Gust Speed 34 mph    
Visibility 10.0 miles    
Events      
Averages and records for this station are not official NWS values.
T = Trace of Precipitation, MM = Missing Value Source: Averaged Metar Reports

Daily Weather History Graph

Daily Weather History Graph

Search for Another Location

Airport or City:

Trip Planner

Search our weather history database for the weather conditions in past years. The results will help you decide how hot, cold, wet, or windy it might be!

Date:

Astronomy

Sep. 30, 2012 Rise Set
Actual Time 6:51 AM MDT 6:38 PM MDT
Civil Twilight 6:24 AM MDT 7:05 PM MDT
Nautical Twilight 5:52 AM MDT 7:36 PM MDT
Astronomical Twilight 5:20 AM MDT 8:08 PM MDT
Moon 6:43 PM MDT (9/30) 7:24 AM MDT (9/30)
Length of Visible Light 12h 41m
Length of Day
11h 47m
Full, 100% of the Moon is Illuminated
Sep 30
Full
Oct 8
Last Quarter
Oct 15
New
Oct 21
First Quarter
Oct 29
Full

Hourly Weather History & Observations

Time (MDT) Temp. Dew Point Humidity Pressure Visibility Wind Dir Wind Speed Gust Speed Precip Events Conditions
12:15 AM 54.0 °F 48.0 °F 80% 30.13 in 10.0 mi Calm Calm - N/A   Scattered Clouds
12:35 AM 54.3 °F 47.8 °F 79% 30.13 in 10.0 mi West 8.1 mph - N/A   Overcast
12:55 AM 55.4 °F 47.3 °F 74% 30.12 in 10.0 mi WNW 4.6 mph - N/A   Scattered Clouds
1:15 AM 53.6 °F 45.5 °F 74% 30.12 in 10.0 mi North 8.1 mph - N/A   Scattered Clouds
1:35 AM 54.9 °F 46.6 °F 74% 30.13 in 10.0 mi WSW 9.2 mph - N/A   Scattered Clouds
1:55 AM 55.6 °F 46.6 °F 72% 30.13 in 10.0 mi WNW 9.2 mph - N/A   Scattered Clouds
2:15 AM 57.4 °F 43.5 °F 60% 30.13 in 10.0 mi WNW 6.9 mph - N/A   Mostly Cloudy
2:35 AM 59.0 °F 43.3 °F 56% 30.13 in 10.0 mi WNW 6.9 mph 16.1 mph N/A   Overcast
2:55 AM 54.5 °F 43.9 °F 67% 30.12 in 10.0 mi West 6.9 mph - N/A   Scattered Clouds
3:15 AM 53.6 °F 43.3 °F 68% 30.11 in 10.0 mi West 8.1 mph - N/A   Clear
3:35 AM 53.1 °F 43.5 °F 70% 30.11 in 10.0 mi WNW 4.6 mph - N/A   Scattered Clouds
3:55 AM 53.2 °F 43.0 °F 68% 30.11 in 10.0 mi NW 5.8 mph - N/A   Scattered Clouds
4:15 AM 53.2 °F 43.7 °F 70% 30.11 in 10.0 mi West 8.1 mph - N/A   Clear
4:35 AM 52.0 °F 44.1 °F 74% 30.11 in 10.0 mi WNW 10.4 mph - N/A   Clear
4:55 AM 54.9 °F 43.0 °F 64% 30.10 in 10.0 mi WNW 12.7 mph - N/A   Clear
5:15 AM 55.0 °F 41.4 °F 60% 30.11 in 10.0 mi WNW 11.5 mph - N/A   Clear
5:35 AM 55.9 °F 41.0 °F 57% 30.11 in 10.0 mi WNW 11.5 mph - N/A   Clear
5:55 AM 55.8 °F 39.7 °F 55% 30.11 in 10.0 mi WNW 10.4 mph - N/A   Clear
6:15 AM 55.8 °F 39.7 °F 55% 30.11 in 10.0 mi WNW 10.4 mph - N/A   Clear
6:35 AM 55.0 °F 39.2 °F 55% 30.11 in 10.0 mi WNW 12.7 mph - N/A   Clear
6:55 AM 55.6 °F 39.2 °F 54% 30.11 in 10.0 mi WNW 10.4 mph - N/A   Clear
7:15 AM 52.3 °F 40.5 °F 64% 30.11 in 10.0 mi West 9.2 mph - N/A   Clear
7:35 AM 55.2 °F 40.1 °F 57% 30.12 in 10.0 mi WNW 11.5 mph - N/A   Clear
7:55 AM 58.6 °F 39.2 °F 48% 30.13 in 10.0 mi NW 11.5 mph - N/A   Clear
8:15 AM 59.9 °F 39.7 °F 47% 30.13 in 10.0 mi WNW 11.5 mph - N/A   Clear
8:35 AM 62.6 °F 39.4 °F 42% 30.13 in 10.0 mi NW 13.8 mph - N/A   Clear
8:55 AM 64.8 °F 39.2 °F 39% 30.14 in 10.0 mi North 15.0 mph 23.0 mph N/A   Clear
9:15 AM 65.7 °F 37.9 °F 36% 30.14 in 10.0 mi North 18.4 mph 24.2 mph N/A   Clear
9:35 AM 67.1 °F 37.2 °F 33% 30.15 in 10.0 mi North 17.3 mph 20.7 mph N/A   Clear
9:55 AM 71.8 °F 36.7 °F 28% 30.15 in 10.0 mi NNW 19.6 mph 25.3 mph N/A   Clear
10:35 AM 75.9 °F 35.1 °F 23% 30.15 in 10.0 mi North 23.0 mph 31.1 mph N/A   Clear
10:55 AM 76.6 °F 34.7 °F 22% 30.15 in 10.0 mi North 21.9 mph 27.6 mph N/A   Clear
11:15 AM 77.2 °F 35.2 °F 22% 30.14 in 10.0 mi North 20.7 mph 29.9 mph N/A   Scattered Clouds
11:35 AM 78.1 °F 34.9 °F 21% 30.15 in 10.0 mi North 21.9 mph 29.9 mph N/A   Scattered Clouds
11:55 AM 75.6 °F 34.5 °F 22% 30.14 in 10.0 mi North 17.3 mph 27.6 mph N/A   Scattered Clouds
12:15 PM 76.6 °F 34.7 °F 22% 30.14 in 10.0 mi North 26.5 mph 34.5 mph N/A   Scattered Clouds
12:35 PM 79.3 °F 33.3 °F 19% 30.13 in 10.0 mi North 20.7 mph 25.3 mph N/A   Scattered Clouds
12:55 PM 79.9 °F 33.6 °F 19% 30.13 in 10.0 mi North 17.3 mph 28.8 mph N/A   Clear
1:15 PM 79.7 °F 33.3 °F 19% 30.12 in 10.0 mi North 21.9 mph 27.6 mph N/A   Clear
1:35 PM 80.2 °F 33.3 °F 18% 30.11 in 10.0 mi NW 19.6 mph 29.9 mph N/A   Scattered Clouds
2:15 PM 77.0 °F 33.4 °F 20% 30.11 in 10.0 mi NNW 12.7 mph 19.6 mph N/A   Clear
2:35 PM 80.2 °F 33.4 °F 18% 30.10 in 10.0 mi North 16.1 mph 21.9 mph N/A   Scattered Clouds
2:55 PM 79.7 °F 32.4 °F 18% 30.10 in 10.0 mi NNW 19.6 mph 24.2 mph N/A   Scattered Clouds
3:15 PM 79.9 °F 32.0 °F 18% 30.10 in 10.0 mi NW 18.4 mph 25.3 mph N/A   Scattered Clouds
3:35 PM 79.3 °F 32.0 °F 18% 30.09 in 10.0 mi NNW 15.0 mph 23.0 mph N/A   Clear
3:55 PM 79.3 °F 31.6 °F 18% 30.09 in 10.0 mi North 15.0 mph 24.2 mph N/A   Clear
4:15 PM 77.7 °F 32.9 °F 20% 30.09 in 10.0 mi North 24.2 mph 27.6 mph N/A   Scattered Clouds
4:35 PM 77.7 °F 32.0 °F 19% 30.09 in 10.0 mi NNW 17.3 mph - N/A   Scattered Clouds
4:55 PM 77.7 °F 32.2 °F 19% 30.09 in 10.0 mi NNW 19.6 mph - N/A   Clear
5:15 PM 77.0 °F 32.0 °F 19% 30.09 in 10.0 mi NNW 19.6 mph - N/A   Clear
5:35 PM 75.0 °F 31.8 °F 21% 30.09 in 10.0 mi NNW 16.1 mph 24.2 mph N/A   Clear
6:15 PM 70.2 °F 33.3 °F 26% 30.11 in 10.0 mi NNW 21.9 mph - N/A   Clear
6:35 PM 68.2 °F 35.1 °F 29% 30.11 in 10.0 mi NNW 12.7 mph 23.0 mph N/A   Clear
6:55 PM 64.9 °F 35.4 °F 33% 30.12 in 10.0 mi NNW 9.2 mph - N/A   Clear
7:15 PM 63.5 °F 36.3 °F 36% 30.12 in 10.0 mi NNW 9.2 mph - N/A   Clear
7:35 PM 63.5 °F 36.5 °F 37% 30.12 in 10.0 mi NNW 9.2 mph - N/A   Clear
7:55 PM 63.9 °F 36.7 °F 37% 30.13 in 10.0 mi NNW 10.4 mph - N/A   Clear
8:15 PM 62.8 °F 36.9 °F 38% 30.13 in 10.0 mi NNW 12.7 mph - N/A   Clear
8:35 PM 60.3 °F 37.4 °F 43% 30.14 in 10.0 mi NNW 12.7 mph - N/A   Clear
9:15 PM 59.5 °F 37.0 °F 43% 30.15 in 10.0 mi NNW 11.5 mph - N/A   Clear
9:35 PM 58.8 °F 36.9 °F 44% 30.15 in 10.0 mi NNW 9.2 mph - N/A   Clear
9:55 PM 58.1 °F 36.5 °F 44% 30.15 in 10.0 mi NNW 11.5 mph - N/A   Clear
10:15 PM 59.0 °F 36.1 °F 42% 30.16 in 10.0 mi NNW 10.4 mph - N/A   Clear
10:35 PM 59.7 °F 36.5 °F 42% 30.16 in 10.0 mi North 9.2 mph - N/A   Clear
10:55 PM 59.7 °F 37.0 °F 43% 30.16 in 10.0 mi North 11.5 mph - N/A   Clear
11:15 PM 60.4 °F 37.4 °F 42% 30.17 in 10.0 mi North 11.5 mph - N/A   Clear
11:35 PM 61.3 °F 37.6 °F 41% 30.18 in 10.0 mi North 15.0 mph 20.7 mph N/A   Mostly Cloudy
11:55 PM 62.1 °F 38.8 °F 42% 30.17 in 10.0 mi NNE 11.5 mph - N/A   Scattered Clouds